sat.trackr.live / text

‹ back to catalog

STARLINK-5050

NORAD 53890 · 2022-119E

PAYLOAD ACTIVE UNKNOWN

§ Identity

Operator
Country
US
Launch date
2022-09-24
Launch site
AFETR
Launch vehicle
Mass (kg)
RCS (m²)

Purposes: comms

External: N2YO · Heavens-Above · Gunter

§ Orbital elements

Epoch: 2026-05-25T03:58:47.525376Z

Period
95.44 min
Inclination
53.2136°
Eccentricity
0.0001709
Mean motion
15.08836422 rev/d
Perigee alt
538.6 km
Apogee alt
540.9 km
Semi-major
6,917.9 km
B*
3.6976e-5
RAAN
305.5892°
Arg perigee
87.6053°
Mean anomaly
272.5135°
Rev number
20,372

§ Raw data

STARLINK-50501 53890U 22119E   26145.16582784  .00000300  00000+0  36976-4 0  99962 53890  53.2136 305.5892 0001709  87.6053 272.5135 15.08836422203723

JSON: /api/v1/satellites/53890 · /tle

For live sub-satellite position, see the globe view (requires WebGL).

§ Visibility from observer

Set your observer location to see the next 7 days of passes ≥ 10°. The values pass through the URL so the page stays shareable.

No JS? Fill the form by hand. The geolocation button needs JavaScript.